Terminal Aerodrome Forecast
Issued by NWS State College, PA

Home | Current Version | Previous Version | Text Only | Print | Product List | Glossary On
Versions: 1 2 3 4 5 6 7 8 9 10 11 12 13 14 15 16 17 18 19 20 21 22 23 24 25 26 27 28 29 30 31 32 33 34 35 36 37 38 39 40 41 42 43 44 45 46 47 48 49 50
000
FTUS41 KCTP 012332
TAFIPT
TAF
KIPT 012332Z 0200/0224 11010KT 3SM -SN BR BKN015 OVC025
      WS020/24025KT
      TEMPO 0200/0202 3/4SM -SN BR OVC009
     FM020300 12010KT 6SM -SHSN BR OVC020 WS020/26025KT
     FM020700 29008KT P6SM VCSH OVC025
     FM021200 28011KT P6SM BKN035
     FM021500 28014KT P6SM BKN050=

USA.gov is the U.S. government's official web portal to all federal, state and local government web resources and services.